Previsão horária em Abondant

Hoje, 18 Maio, Terça-feira

Tempo Temperatura Precipitação Vento Pressão Humidade
00:00 +6°C° 0 mm 5 m/s 748 mmHg 95%
01:00 +6°C° 0 mm 5 m/s 748 mmHg 92%
02:00 +7°C° 0 mm 5 m/s 748 mmHg 89%
03:00 +7°C° 0 mm 5 m/s 748 mmHg 85%
04:00 +7°C° 0 mm 5 m/s 748 mmHg 86%
05:00 +7°C° 0 mm 5 m/s 748 mmHg 87%
06:00 +8°C° 0 mm 5 m/s 749 mmHg 88%
07:00 +9°C° 0 mm 5 m/s 749 mmHg 82%
08:00 +10°C° 0 mm 5 m/s 749 mmHg 77%
09:00 +12°C° 0 mm 5 m/s 749 mmHg 72%
10:00 +12°C° 0.1 mm 5 m/s 749 mmHg 73%
11:00 +12°C° 0.1 mm 5 m/s 750 mmHg 73%
12:00 +12°C° 0.1 mm 5 m/s 750 mmHg 73%
13:00 +13°C° 0.3 mm 5 m/s 750 mmHg 72%
14:00 +13°C° 0.3 mm 5 m/s 750 mmHg 71%
15:00 +14°C° 0.3 mm 5 m/s 750 mmHg 70%
16:00 +13°C° 0.4 mm 4 m/s 750 mmHg 75%
17:00 +13°C° 0.4 mm 3 m/s 750 mmHg 80%
18:00 +13°C° 0.4 mm 2 m/s 750 mmHg 84%
19:00 +12°C° 0.1 mm 2 m/s 751 mmHg 86%
20:00 +10°C° 0.1 mm 2 m/s 751 mmHg 87%
21:00 +8°C° 0.1 mm 2 m/s 751 mmHg 89%
22:00 +8°C° 0.1 mm 2 m/s 751 mmHg 90%
23:00 +8°C° 0.1 mm 3 m/s 751 mmHg 92%

Amanhã, 19 Maio, Quarta-feira

Tempo Temperatura Precipitação Vento Pressão Humidade
00:00 +7°C° 0.1 mm 3 m/s 751 mmHg 94%
01:00 +7°C° 0.2 mm 3 m/s 751 mmHg 94%
02:00 +7°C° 0.2 mm 3 m/s 751 mmHg 95%
03:00 +7°C° 0.2 mm 3 m/s 751 mmHg 96%
04:00 +7°C° 0.2 mm 3 m/s 751 mmHg 96%
05:00 +7°C° 0.2 mm 4 m/s 751 mmHg 96%
06:00 +7°C° 0.2 mm 4 m/s 751 mmHg 96%
07:00 +7°C° 0.1 mm 5 m/s 751 mmHg 93%
08:00 +8°C° 0.1 mm 5 m/s 751 mmHg 90%
09:00 +9°C° 0.1 mm 5 m/s 751 mmHg 87%
10:00 +9°C° 0.2 mm 6 m/s 751 mmHg 85%
11:00 +10°C° 0.2 mm 6 m/s 751 mmHg 83%
12:00 +10°C° 0.2 mm 6 m/s 751 mmHg 80%
13:00 +11°C° 0.4 mm 6 m/s 751 mmHg 80%
14:00 +11°C° 0.4 mm 7 m/s 751 mmHg 80%
15:00 +11°C° 0.4 mm 7 m/s 752 mmHg 80%
16:00 +11°C° 0.2 mm 7 m/s 752 mmHg 81%
17:00 +10°C° 0.2 mm 6 m/s 752 mmHg 82%
18:00 +10°C° 0.2 mm 6 m/s 753 mmHg 83%
19:00 +9°C° 0 mm 5 m/s 753 mmHg 86%
20:00 +8°C° 0 mm 5 m/s 754 mmHg 89%
21:00 +7°C° 0 mm 4 m/s 755 mmHg 91%
22:00 +6°C° 0 mm 4 m/s 755 mmHg 93%
23:00 +5°C° 0 mm 4 m/s 755 mmHg 94%

Depois de amanhã, 20 Maio, Quinta-feira

Tempo Temperatura Precipitação Vento Pressão Humidade
00:00 +5°C° 0 mm 3 m/s 755 mmHg 96%
01:00 +5°C° 0 mm 3 m/s 755 mmHg 96%
02:00 +4°C° 0 mm 3 m/s 756 mmHg 96%
03:00 +4°C° 0 mm 3 m/s 756 mmHg 96%
04:00 +5°C° 0 mm 3 m/s 756 mmHg 95%
05:00 +7°C° 0 mm 3 m/s 756 mmHg 93%
06:00 +8°C° 0 mm 2 m/s 756 mmHg 92%
07:00 +9°C° 0 mm 2 m/s 757 mmHg 83%
08:00 +12°C° 0 mm 2 m/s 757 mmHg 75%
09:00 +14°C° 0 mm 2 m/s 757 mmHg 67%
10:00 +15°C° 0 mm 2 m/s 757 mmHg 63%
11:00 +16°C° 0 mm 2 m/s 757 mmHg 58%
12:00 +16°C° 0 mm 3 m/s 757 mmHg 54%
13:00 +17°C° 0 mm 3 m/s 756 mmHg 53%
14:00 +17°C° 0 mm 3 m/s 756 mmHg 53%
15:00 +17°C° 0 mm 3 m/s 755 mmHg 53%
16:00 +16°C° 0 mm 3 m/s 755 mmHg 60%
17:00 +16°C° 0 mm 3 m/s 755 mmHg 66%
18:00 +15°C° 0 mm 2 m/s 755 mmHg 73%
19:00 +13°C° 0 mm 3 m/s 754 mmHg 74%
20:00 +11°C° 0 mm 3 m/s 754 mmHg 74%
21:00 +10°C° 0 mm 3 m/s 754 mmHg 75%
22:00 +10°C° 0 mm 3 m/s 753 mmHg 75%
23:00 +9°C° 0 mm 3 m/s 752 mmHg 74%

21 Maio, Sexta-feira

Tempo Temperatura Precipitação Vento Pressão Humidade
00:00 +9°C° 0 mm 3 m/s 752 mmHg 74%
01:00 +7°C° 0 mm 4 m/s 751 mmHg 75%
02:00 +7°C° 0 mm 4 m/s 751 mmHg 76%
03:00 +7°C° 0 mm 4 m/s 750 mmHg 77%
04:00 +7°C° 0 mm 4 m/s 750 mmHg 77%
05:00 +8°C° 0 mm 4 m/s 749 mmHg 76%
06:00 +10°C° 0 mm 4 m/s 749 mmHg 76%
07:00 +9°C° 0 mm 5 m/s 748 mmHg 76%
08:00 +10°C° 0 mm 5 m/s 748 mmHg 75%
09:00 +12°C° 0 mm 5 m/s 747 mmHg 75%
10:00 +13°C° 0 mm 6 m/s 747 mmHg 73%
11:00 +14°C° 0 mm 6 m/s 746 mmHg 71%
12:00 +15°C° 0 mm 7 m/s 746 mmHg 68%
13:00 +16°C° 0.3 mm 7 m/s 745 mmHg 68%
14:00 +16°C° 0.3 mm 7 m/s 744 mmHg 67%
15:00 +16°C° 0.3 mm 7 m/s 744 mmHg 67%
16:00 +15°C° 0 mm 7 m/s 744 mmHg 66%
17:00 +13°C° 0 mm 8 m/s 744 mmHg 65%
18:00 +12°C° 0 mm 8 m/s 744 mmHg 64%
19:00 +11°C° 0 mm 8 m/s 744 mmHg 65%
20:00 +10°C° 0 mm 8 m/s 744 mmHg 66%
21:00 +9°C° 0 mm 8 m/s 744 mmHg 67%
22:00 +9°C° 0 mm 8 m/s 744 mmHg 71%
23:00 +7°C° 0 mm 9 m/s 744 mmHg 75%

22 Maio, Sábado

Tempo Temperatura Precipitação Vento Pressão Humidade
00:00 +7°C° 0 mm 9 m/s 744 mmHg 79%
01:00 +7°C° 0 mm 9 m/s 744 mmHg 77%
02:00 +7°C° 0 mm 9 m/s 743 mmHg 76%
03:00 +7°C° 0 mm 9 m/s 743 mmHg 75%
04:00 +7°C° 0 mm 9 m/s 743 mmHg 76%
05:00 +7°C° 0 mm 9 m/s 743 mmHg 77%
06:00 +7°C° 0 mm 9 m/s 743 mmHg 79%
07:00 +8°C° 0.1 mm 10 m/s 743 mmHg 78%
08:00 +8°C° 0.1 mm 10 m/s 743 mmHg 78%
09:00 +9°C° 0.1 mm 10 m/s 743 mmHg 77%
10:00 +11°C° 0.2 mm 10 m/s 742 mmHg 74%
11:00 +12°C° 0.2 mm 10 m/s 742 mmHg 72%
12:00 +13°C° 0.2 mm 10 m/s 742 mmHg 69%
13:00 +12°C° 0.4 mm 10 m/s 742 mmHg 73%
14:00 +12°C° 0.4 mm 9 m/s 742 mmHg 76%
15:00 +12°C° 0.4 mm 9 m/s 742 mmHg 80%
16:00 +11°C° 0.5 mm 9 m/s 743 mmHg 82%
17:00 +10°C° 0.5 mm 8 m/s 743 mmHg 84%
18:00 +10°C° 0.5 mm 8 m/s 743 mmHg 86%
19:00 +9°C° 0.1 mm 8 m/s 743 mmHg 87%
20:00 +8°C° 0.1 mm 7 m/s 744 mmHg 88%
21:00 +6°C° 0.1 mm 7 m/s 744 mmHg 90%
22:00 +6°C° 0 mm 7 m/s 745 mmHg 87%
23:00 +6°C° 0 mm 7 m/s 745 mmHg 85%

23 Maio, Domingo

Tempo Temperatura Precipitação Vento Pressão Humidade
00:00 +6°C° 0 mm 7 m/s 745 mmHg 82%
01:00 +6°C° 0 mm 7 m/s 745 mmHg 80%
02:00 +6°C° 0 mm 8 m/s 746 mmHg 77%
03:00 +6°C° 0 mm 8 m/s 746 mmHg 75%
04:00 +6°C° 0 mm 7 m/s 746 mmHg 76%
05:00 +6°C° 0 mm 7 m/s 747 mmHg 76%
06:00 +6°C° 0 mm 7 m/s 747 mmHg 77%
07:00 +8°C° 0.1 mm 7 m/s 748 mmHg 73%
08:00 +9°C° 0.1 mm 7 m/s 748 mmHg 70%
09:00 +10°C° 0.1 mm 8 m/s 749 mmHg 66%
10:00 +10°C° 0.1 mm 7 m/s 749 mmHg 63%
11:00 +11°C° 0.1 mm 7 m/s 749 mmHg 60%
12:00 +12°C° 0.1 mm 7 m/s 750 mmHg 58%
13:00 +12°C° 0.1 mm 7 m/s 750 mmHg 58%
14:00 +12°C° 0.1 mm 7 m/s 750 mmHg 59%
15:00 +13°C° 0.1 mm 6 m/s 750 mmHg 59%
16:00 +13°C° 0.1 mm 6 m/s 751 mmHg 64%
17:00 +12°C° 0.1 mm 5 m/s 751 mmHg 68%
18:00 +10°C° 0.1 mm 5 m/s 751 mmHg 72%
19:00 +10°C° 0 mm 4 m/s 752 mmHg 75%
20:00 +10°C° 0 mm 4 m/s 752 mmHg 77%
21:00 +8°C° 0 mm 4 m/s 752 mmHg 79%
22:00 +8°C° 0 mm 5 m/s 752 mmHg 80%
23:00 +9°C° 0 mm 5 m/s 751 mmHg 81%
Mostrar mais

Necessitamos do seu Consentimento

A Meteoprog e os seus Fornecedores de Serviços podem armazenar e aceder a dados pessoais como cookies, identificadores do dispositivo ou outras tecnologias semelhantes existentes no seu dispositivo e processar estes dados para personalizar conteúdos e anúncios, assim como funcionalidades nas redes sociais e análise de tráfego.

  • Armazenar e/ou aceder a informações no seu dispositivo

    Os cookies, identificadores do dispositivo ou outras informações podem ser armazenados ou acedidos no seu dispositivo, para os fins acima indicados.

  • Anúncios e conteúdos personalizados, medição de anúncios e conteúdos, dados sobre o público-alvo e desenvolvimento de produtos

    Os anúncios e os conteúdos podem ser personalizados com base num perfil. Podem ser adicionados dados adicionais para uma maior personalização dos anúncios e dos conteúdos. A eficácia dos anúncios e dos conteúdos pode ser medida. Podem ser obtidas informações sobre o público que visualizou os anúncios e os conteúdos. Estes dados podem ser usados para desenvolver ou melhorar sistemas, softwares ou a experiência do utilizador.

Ao clicar em "Eu concordo”, permitirá o uso de cookies, identificadores do dispositivo e web beacons mencionados ou outras tecnologias semelhantes. As configurações do navegador do seu dispositivo podem ser alteradas.

Para certos fins, podem ser invocados interesses legítimos ao invés de consentimento. Pode ler mais informação sobre este assunto na nossa Política de Privacidade e Cookies.